Location: Winthrop
(48.4780°N, 120.1850°W)
Time: 22:25:37
(UTC-07:00)

A-11 Canister half - Pass Details

Date: 03 June 2023
Orbit: 1515 x 1684 km, 47.2° (Epoch: 29 September)

Event Time Altitude Azimuth Distance (km) Brightness Sun altitude
Exits shadow 03:30:31 14° 219° (SW) 3,528 10.2 -11.5°
Maximum altitude 03:38:47 52° 149° (SSE) 1,887 9.3 -10.7°
Drops below altitude 10° 03:47:46 10° 77° (ENE) 3,719 11.9 -9.8°
Sets 03:50:52 0° 72° (ENE) 4,688 12.6 -9.5°
